Cadillac, MI

5:46 AM EDT on March 23, 2017 (GMT -0400)
Wexford County

Weather History for KCAD - July, 2014

Change the Weather History Date:

Friday, July 4, 2014

  Actual Average Record
Temperature  
Mean Temperature 58 °F -  
Max Temperature 74 °F 77 °F 95 °F (2012)
Min Temperature 42 °F 54 °F 40 °F (1972)
Degree Days  
Heating Degree Days 7    
Growing Degree Days 8 (Base 50)    
Moisture  
Dew Point 45 °F    
Average Humidity 62    
Maximum Humidity 98    
Minimum Humidity 34    
Precipitation  
Precipitation 0.00 in - - ()
Sea Level Pressure  
Sea Level Pressure 30.26 in    
Wind  
Wind Speed 3 mph (NW)    
Max Wind Speed 12 mph    
Max Gust Speed 20 mph    
Visibility 10 miles    
Events      
Averages and records for this station are not official NWS values.
T = Trace of Precipitation, MM = Missing Value Source: NWS Daily Summary

Daily Weather History Graph

Daily Weather History Graph

Search for Another Location

Airport or City:

Trip Planner

Search our weather history database for the weather conditions in past years. The results will help you decide how hot, cold, wet, or windy it might be!

Date:

Astronomy

Jul. 04, 2014 Rise Set
Actual Time 6:03 AM EDT 9:28 PM EDT
Civil Twilight 5:27 AM EDT 10:04 PM EDT
Nautical Twilight 4:39 AM EDT 10:52 PM EDT
Astronomical Twilight 3:39 AM EDT 11:51 PM EDT
Moon 1:15 PM EDT (7/4) 12:35 AM EDT (7/4)
Length of Visible Light 16h 37m
Length of Day
15h 25m
Waxing Crescent, 42% of the Moon is Illuminated
Jul 4
Waxing Crescent
Jul 5
First Quarter
Jul 12
Full
Jul 18
Last Quarter
Jul 26
New

Hourly Weather History & Observations

Time (EDT) Temp. Windchill Dew Point Humidity Pressure Visibility Wind Dir Wind Speed Gust Speed Precip Events Conditions
12:14 AM 49.3 °F - 45.9 °F 88% 30.18 in 10.0 mi Calm Calm - N/A   Clear
12:35 AM 47.8 °F - 45.7 °F 92% 30.18 in 10.0 mi Calm Calm - N/A   Clear
12:54 AM 46.4 °F - 44.8 °F 94% 30.19 in 10.0 mi Calm Calm - N/A   Clear
1:15 AM 44.1 °F - 43.3 °F 97% 30.20 in 10.0 mi Calm Calm - N/A   Clear
1:35 AM 45.5 °F - 45.0 °F 98% 30.20 in 10.0 mi Calm Calm - N/A   Clear
1:54 AM 45.7 °F - 44.8 °F 97% 30.19 in 10.0 mi Calm Calm - N/A   Clear
2:15 AM 45.0 °F - 44.2 °F 97% 30.19 in 10.0 mi Calm Calm - N/A   Clear
2:35 AM 44.8 °F - 43.5 °F 95% 30.20 in 10.0 mi Calm Calm - N/A   Clear
2:54 AM 45.0 °F - 43.7 °F 95% 30.20 in 10.0 mi Calm Calm - N/A   Clear
3:15 AM 45.1 °F 43.7 °F 42.8 °F 91% 30.20 in 10.0 mi NW 3.5 mph - N/A   Clear
3:35 AM 45.1 °F - 42.3 °F 90% 30.20 in 10.0 mi Calm Calm - N/A   Clear
3:54 AM 45.0 °F - 42.6 °F 91% 30.21 in 10.0 mi Calm Calm - N/A   Clear
4:15 AM 45.5 °F 44.2 °F 42.3 °F 88% 30.21 in 10.0 mi NW 3.5 mph - N/A   Clear
4:34 AM 44.8 °F 42.4 °F 41.7 °F 89% 30.22 in 10.0 mi NW 4.6 mph - N/A   Clear
4:55 AM 44.8 °F 42.4 °F 41.4 °F 88% 30.23 in 10.0 mi NW 4.6 mph - N/A   Clear
5:15 AM 43.2 °F 40.5 °F 41.0 °F 92% 30.23 in 10.0 mi NW 4.6 mph - N/A   Clear
5:34 AM 43.2 °F 40.5 °F 41.2 °F 93% 30.23 in 10.0 mi NW 4.6 mph - N/A   Clear
5:55 AM 43.7 °F 41.1 °F 41.0 °F 90% 30.24 in 10.0 mi NW 4.6 mph - N/A   Clear
6:15 AM 43.0 °F - 40.8 °F 92% 30.24 in 10.0 mi Calm Calm - N/A   Clear
6:34 AM 42.8 °F - 40.5 °F 91% 30.25 in 10.0 mi Calm Calm - N/A   Clear
6:55 AM 44.2 °F - 42.1 °F 92% 30.26 in 10.0 mi Calm Calm - N/A   Clear
7:14 AM 47.3 °F - 44.4 °F 90% 30.27 in 10.0 mi Calm Calm - N/A   Clear
7:35 AM 50.4 °F - 46.8 °F 87% 30.27 in 10.0 mi Calm Calm - N/A   Clear
7:55 AM 54.1 °F - 46.4 °F 75% 30.28 in 10.0 mi Calm Calm - N/A   Clear
8:14 AM 56.3 °F - 46.6 °F 70% 30.29 in 10.0 mi Calm Calm - N/A   Clear
8:35 AM 59.0 °F - 46.4 °F 63% 30.30 in 10.0 mi North 3.5 mph - N/A   Clear
8:55 AM 60.8 °F - 45.1 °F 56% 30.30 in 10.0 mi NW 4.6 mph - N/A   Clear
9:14 AM 62.1 °F - 42.8 °F 49% 30.31 in 10.0 mi NNW 4.6 mph - N/A   Clear
9:35 AM 63.1 °F - 42.4 °F 47% 30.31 in 10.0 mi North 3.5 mph - N/A   Clear
9:55 AM 63.9 °F - 41.2 °F 43% 30.31 in 10.0 mi NNW 5.8 mph - N/A   Clear
10:14 AM 65.3 °F - 41.9 °F 42% 30.31 in 10.0 mi NNW 5.8 mph - N/A   Clear
10:35 AM 66.4 °F - 42.1 °F 41% 30.31 in 10.0 mi NNW 4.6 mph - N/A   Clear
10:55 AM 68.0 °F - 43.0 °F 40% 30.31 in 10.0 mi NNW 6.9 mph - N/A   Clear
11:14 AM 68.2 °F - 42.3 °F 39% 30.31 in 10.0 mi North 6.9 mph - N/A   Clear
11:35 AM 68.4 °F - 42.6 °F 39% 30.31 in 10.0 mi NW 5.8 mph - N/A   Clear
11:54 AM 69.6 °F - 43.5 °F 39% 30.31 in 10.0 mi North 8.1 mph - N/A   Clear
12:14 PM 68.7 °F - 43.3 °F 40% 30.30 in 10.0 mi NNW 8.1 mph - N/A   Clear
12:35 PM 70.5 °F - 44.1 °F 39% 30.30 in 10.0 mi NNW 6.9 mph - N/A   Clear
12:54 PM 71.8 °F - 44.8 °F 38% 30.30 in 10.0 mi NW 10.4 mph - N/A   Clear
1:15 PM 70.9 °F - 43.5 °F 37% 30.29 in 10.0 mi North 11.5 mph 17.3 mph N/A   Clear
1:35 PM 71.2 °F - 44.2 °F 38% 30.29 in 10.0 mi NW 10.4 mph 19.6 mph N/A   Clear
1:54 PM 72.0 °F - 45.1 °F 38% 30.29 in 10.0 mi NNE 4.6 mph - N/A   Clear
2:15 PM 72.0 °F - 45.3 °F 38% 30.29 in 10.0 mi North 6.9 mph - N/A   Clear
2:35 PM 72.9 °F - 45.7 °F 38% 30.29 in 10.0 mi NNW 8.1 mph - N/A   Clear
2:54 PM 71.2 °F - 44.2 °F 38% 30.29 in 10.0 mi North 3.5 mph - N/A   Clear
3:15 PM 72.7 °F - 45.1 °F 37% 30.29 in 10.0 mi NW 8.1 mph - N/A   Scattered Clouds
3:35 PM 73.2 °F - 45.3 °F 37% 30.28 in 10.0 mi NNE 9.2 mph - N/A   Scattered Clouds
3:54 PM 71.4 °F - 45.1 °F 39% 30.28 in 10.0 mi North 4.6 mph - N/A   Scattered Clouds
4:15 PM 71.1 °F - 43.5 °F 37% 30.27 in 10.0 mi NNW 3.5 mph - N/A   Clear
4:34 PM 74.1 °F - 45.3 °F 36% 30.27 in 10.0 mi NNW 4.6 mph - N/A   Clear
4:55 PM 74.3 °F - 44.2 °F 34% 30.27 in 10.0 mi WNW 10.4 mph - N/A   Clear
5:14 PM 74.1 °F - 44.4 °F 35% 30.27 in 10.0 mi NW 5.8 mph - N/A   Clear
5:34 PM 73.8 °F - 45.5 °F 36% 30.27 in 10.0 mi NW 10.4 mph - N/A   Clear
5:55 PM 73.8 °F - 45.1 °F 36% 30.27 in 10.0 mi WNW 5.8 mph - N/A   Clear
6:14 PM 73.6 °F - 44.4 °F 35% 30.26 in 10.0 mi WNW 4.6 mph - N/A   Clear
6:35 PM 72.9 °F - 44.6 °F 36% 30.26 in 10.0 mi North 4.6 mph - N/A   Clear
6:55 PM 72.5 °F - 45.5 °F 38% 30.27 in 10.0 mi NW 8.1 mph - N/A   Clear
7:14 PM 72.7 °F - 45.0 °F 37% 30.27 in 10.0 mi West 5.8 mph - N/A   Clear
7:35 PM 72.1 °F - 47.8 °F 42% 30.27 in 10.0 mi West 6.9 mph - N/A   Clear
7:55 PM 70.9 °F - 48.0 °F 44% 30.27 in 10.0 mi West 9.2 mph - N/A   Clear
8:14 PM 69.8 °F - 47.3 °F 45% 30.28 in 10.0 mi WNW 8.1 mph - N/A   Clear
8:35 PM 68.2 °F - 47.5 °F 47% 30.28 in 10.0 mi WNW 6.9 mph - N/A   Clear
8:55 PM 66.0 °F - 47.5 °F 51% 30.27 in 10.0 mi WNW 4.6 mph - N/A   Clear
9:14 PM 63.7 °F - 46.8 °F 54% 30.28 in 10.0 mi WNW 4.6 mph - N/A   Clear
9:35 PM 62.1 °F - 47.3 °F 58% 30.28 in 10.0 mi Calm Calm - N/A   Clear
9:55 PM 58.8 °F - 47.7 °F 66% 30.29 in 10.0 mi West 3.5 mph - N/A   Clear
10:14 PM 57.0 °F - 48.4 °F 73% 30.29 in 10.0 mi SSW 3.5 mph - N/A   Clear
10:35 PM 54.9 °F - 50.0 °F 84% 30.29 in 10.0 mi Calm Calm - N/A   Clear
10:55 PM 53.8 °F - 49.3 °F 85% 30.29 in 10.0 mi Calm Calm - N/A   Clear
11:14 PM 51.6 °F - 47.8 °F 87% 30.29 in 10.0 mi Calm Calm - N/A   Clear
11:35 PM 52.0 °F - 48.0 °F 86% 30.29 in 10.0 mi Calm Calm - N/A   Clear
11:49 PM 50.9 °F - 47.7 °F 89% 30.29 in 10.0 mi Calm Calm - N/A   Clear